TimeEDT,TemperatureF,Dew PointF,Humidity,Sea Level PressureIn,VisibilityMPH,Wind Direction,Wind SpeedMPH,Gust SpeedMPH,PrecipitationIn,Events,Conditions,WindDirDegrees,DateUTC
12:09 AM,58.1,55.9,93,30.07,7.0,Calm,Calm,-,N/A,,Clear,0,2013-08-20 04:09:00
12:29 AM,59.7,58.1,94,30.07,10.0,Calm,Calm,-,N/A,,Clear,0,2013-08-20 04:29:00
12:48 AM,57.7,56.3,95,30.07,7.0,Calm,Calm,-,N/A,,Clear,0,2013-08-20 04:48:00
1:08 AM,57.9,56.3,94,30.07,7.0,Calm,Calm,-,N/A,,Clear,0,2013-08-20 05:08:00
1:29 AM,58.3,57.0,96,30.07,7.0,Calm,Calm,-,N/A,,Clear,0,2013-08-20 05:29:00
1:49 AM,57.9,56.5,95,30.07,7.0,Calm,Calm,-,N/A,,Clear,0,2013-08-20 05:49:00
2:11 AM,57.9,55.4,91,30.07,10.0,Calm,Calm,-,N/A,,Clear,0,2013-08-20 06:11:00
2:31 AM,56.8,54.7,92,30.07,7.0,Calm,Calm,-,N/A,,Clear,0,2013-08-20 06:31:00
2:51 AM,57.2,55.2,93,30.07,7.0,Calm,Calm,-,N/A,,Clear,0,2013-08-20 06:51:00
3:11 AM,57.4,55.8,94,30.07,7.0,SSW,4.6,-,N/A,,Clear,200,2013-08-20 07:11:00
3:31 AM,59.9,56.8,90,30.07,10.0,SSW,4.6,-,N/A,,Clear,210,2013-08-20 07:31:00
3:51 AM,57.9,54.9,90,30.08,7.0,Calm,Calm,-,N/A,,Clear,0,2013-08-20 07:51:00
4:12 AM,57.2,55.2,93,30.08,7.0,Calm,Calm,-,N/A,,Clear,0,2013-08-20 08:12:00
4:32 AM,55.4,53.6,94,30.08,5.0,Calm,Calm,-,N/A,,Clear,0,2013-08-20 08:32:00
4:52 AM,56.5,54.9,94,30.08,4.0,Calm,Calm,-,N/A,,Clear,0,2013-08-20 08:52:00
5:12 AM,55.8,54.5,96,30.08,2.0,Calm,Calm,-,N/A,,Mostly Cloudy,0,2013-08-20 09:12:00
5:32 AM,55.8,54.7,96,30.08,4.0,Calm,Calm,-,N/A,,Scattered Clouds,0,2013-08-20 09:32:00
5:49 AM,56.3,55.2,96,30.08,4.0,Calm,Calm,-,N/A,,Clear,0,2013-08-20 09:49:00
6:11 AM,55.8,54.7,96,30.09,4.0,Calm,Calm,-,N/A,,Clear,0,2013-08-20 10:11:00
6:31 AM,56.3,55.0,96,30.09,4.0,Calm,Calm,-,N/A,,Clear,0,2013-08-20 10:31:00
6:51 AM,57.2,55.9,96,30.10,4.0,Calm,Calm,-,N/A,,Clear,0,2013-08-20 10:51:00
7:11 AM,57.4,56.1,96,30.11,4.0,Calm,Calm,-,N/A,,Clear,0,2013-08-20 11:11:00
7:31 AM,58.6,57.6,96,30.11,5.0,SSW,3.5,-,N/A,,Clear,210,2013-08-20 11:31:00
7:51 AM,61.3,59.0,92,30.12,5.0,Calm,Calm,-,N/A,,Clear,0,2013-08-20 11:51:00
8:12 AM,63.1,59.7,89,30.12,7.0,Calm,Calm,-,N/A,,Clear,0,2013-08-20 12:12:00
8:32 AM,64.8,60.3,85,30.13,7.0,Calm,Calm,-,N/A,,Clear,0,2013-08-20 12:32:00
8:52 AM,67.1,61.2,81,30.13,10.0,SW,4.6,-,N/A,,Clear,220,2013-08-20 12:52:00
9:12 AM,69.8,62.1,76,30.13,10.0,SW,4.6,-,N/A,,Clear,230,2013-08-20 13:12:00
9:32 AM,71.2,62.6,74,30.14,10.0,SW,5.8,-,N/A,,Clear,230,2013-08-20 13:32:00
9:49 AM,72.5,62.8,71,30.13,10.0,WSW,4.6,-,N/A,,Clear,240,2013-08-20 13:49:00
10:09 AM,74.7,63.5,68,30.13,10.0,WSW,3.5,-,N/A,,Clear,240,2013-08-20 14:09:00
10:30 AM,76.8,64.0,65,30.13,10.0,SW,6.9,-,N/A,,Clear,220,2013-08-20 14:30:00
10:50 AM,78.8,64.2,61,30.14,10.0,SSW,5.8,-,N/A,,Clear,210,2013-08-20 14:50:00
11:10 AM,79.7,63.9,58,30.14,10.0,WSW,6.9,-,N/A,,Clear,240,2013-08-20 15:10:00
11:30 AM,81.1,63.7,55,30.14,10.0,SW,6.9,-,N/A,,Clear,230,2013-08-20 15:30:00
11:50 AM,82.2,63.3,53,30.14,10.0,SW,6.9,-,N/A,,Clear,230,2013-08-20 15:50:00
12:10 PM,82.6,61.9,49,30.13,10.0,SW,9.2,-,N/A,,Scattered Clouds,230,2013-08-20 16:10:00
12:30 PM,83.1,61.2,47,30.13,10.0,WSW,9.2,17.3,N/A,,Mostly Cloudy,250,2013-08-20 16:30:00
12:50 PM,84.7,60.3,43,30.13,10.0,West,10.4,16.1,N/A,,Scattered Clouds,260,2013-08-20 16:50:00
1:10 PM,83.7,58.8,43,30.13,10.0,WSW,10.4,18.4,N/A,,Scattered Clouds,240,2013-08-20 17:10:00
1:33 PM,85.6,57.0,38,30.12,10.0,SW,10.4,-,N/A,,Clear,230,2013-08-20 17:33:00
1:53 PM,86.2,57.2,37,30.11,10.0,SW,11.5,-,N/A,,Scattered Clouds,220,2013-08-20 17:53:00
2:13 PM,85.5,57.6,39,30.11,10.0,WSW,8.1,-,N/A,,Mostly Cloudy,240,2013-08-20 18:13:00
2:33 PM,86.9,56.5,35,30.10,10.0,SSW,10.4,16.1,N/A,,Mostly Cloudy,210,2013-08-20 18:33:00
2:53 PM,87.1,56.3,35,30.10,10.0,SW,11.5,-,N/A,,Scattered Clouds,220,2013-08-20 18:53:00
3:08 PM,85.5,57.0,38,30.10,10.0,WSW,5.8,-,N/A,,Scattered Clouds,250,2013-08-20 19:08:00
3:28 PM,86.2,56.1,36,30.09,10.0,WSW,8.1,-,N/A,,Scattered Clouds,240,2013-08-20 19:28:00
3:48 PM,87.1,57.0,36,30.09,10.0,WSW,8.1,16.1,N/A,,Scattered Clouds,250,2013-08-20 19:48:00
4:09 PM,85.8,57.2,38,30.09,10.0,WSW,10.4,-,N/A,,Scattered Clouds,240,2013-08-20 20:09:00
4:29 PM,84.7,58.6,41,30.08,10.0,WSW,10.4,16.1,N/A,,Mostly Cloudy,240,2013-08-20 20:29:00
4:49 PM,87.6,57.0,35,30.08,10.0,SW,8.1,-,N/A,,Scattered Clouds,230,2013-08-20 20:49:00
5:09 PM,86.5,57.4,37,30.08,10.0,WSW,12.7,19.6,N/A,,Scattered Clouds,240,2013-08-20 21:09:00
5:31 PM,84.9,57.9,40,30.07,10.0,SW,5.8,-,N/A,,Scattered Clouds,230,2013-08-20 21:31:00
5:51 PM,86.4,57.0,37,30.07,10.0,WSW,8.1,-,N/A,,Mostly Cloudy,240,2013-08-20 21:51:00
6:11 PM,86.0,56.1,36,30.07,10.0,WSW,11.5,17.3,N/A,,Scattered Clouds,250,2013-08-20 22:11:00
6:31 PM,85.1,56.3,37,30.07,10.0,SW,8.1,-,N/A,,Scattered Clouds,220,2013-08-20 22:31:00
6:51 PM,84.4,57.0,39,30.07,10.0,WSW,8.1,-,N/A,,Clear,240,2013-08-20 22:51:00
7:12 PM,83.3,57.4,41,30.08,10.0,SW,8.1,-,N/A,,Scattered Clouds,230,2013-08-20 23:12:00
7:32 PM,82.4,57.2,42,30.08,10.0,SW,6.9,-,N/A,,Clear,230,2013-08-20 23:32:00
7:52 PM,80.8,58.1,46,30.08,10.0,SW,4.6,-,N/A,,Clear,220,2013-08-20 23:52:00
8:12 PM,78.8,58.6,50,30.08,10.0,SW,4.6,-,N/A,,Clear,230,2013-08-21 00:12:00
8:27 PM,77.7,59.0,52,30.08,10.0,SW,3.5,-,N/A,,Clear,220,2013-08-21 00:27:00
8:49 PM,73.8,59.5,61,30.09,10.0,SSW,3.5,-,N/A,,Clear,210,2013-08-21 00:49:00
9:09 PM,72.1,60.1,66,30.09,10.0,SSW,3.5,-,N/A,,Clear,200,2013-08-21 01:09:00
9:29 PM,70.0,61.2,73,30.09,10.0,SSW,3.5,-,N/A,,Clear,210,2013-08-21 01:29:00
9:50 PM,69.6,61.5,75,30.10,10.0,SSW,4.6,-,N/A,,Clear,200,2013-08-21 01:50:00
10:10 PM,67.6,61.2,80,30.10,10.0,SSW,3.5,-,N/A,,Clear,200,2013-08-21 02:10:00
10:30 PM,66.7,61.5,83,30.10,10.0,South,4.6,-,N/A,,Clear,180,2013-08-21 02:30:00
10:50 PM,65.5,61.0,85,30.09,10.0,South,3.5,-,N/A,,Clear,180,2013-08-21 02:50:00
11:12 PM,64.2,59.7,85,30.10,10.0,Calm,Calm,-,N/A,,Clear,0,2013-08-21 03:12:00
11:32 PM,64.8,60.8,87,30.10,10.0,South,3.5,-,N/A,,Clear,180,2013-08-21 03:32:00
11:52 PM,63.3,59.9,89,30.10,7.0,South,5.8,-,N/A,,Clear,190,2013-08-21 03:52:00